Regional Weather Roundup
Issued by NWS Newport/Morehead, NC

Current Version | Previous Version | Text Only | Print | Product List | Glossary Off
Versions: 1 2 3 4 5 6 7 8 9 10 11 12 13 14 15 16 17 18 19 20 21 22 23 24 25 26 27 28 29 30 31 32 33 34 35 36 37 38 39 40 41 42 43 44 45 46 47 48 49 50
000 ASUS42 KMHX 200426 RWRMHX WEATHER ROUNDUP FOR EASTERN NORTH CAROLINA NATIONAL WEATHER SERVICE NEWPORT/MOREHEAD CITY NC 1200 AM EDT THU JUL 20 2017 NOTE: "FAIR" INDICATES FEW OR NO CLOUDS BELOW 12,000 FEET WITH NO SIGNIFICANT WEATHER AND/OR OBSTRUCTIONS TO VISIBILITY NCZ015>017-031-032-045>047-102-103-200500- NORTH COAST CITY SKY/WX TMP DP RH WIND PRES REMARKS EDENTON CLEAR 80 73 79 CALM 30.08S ELIZABETH CITY CLEAR 76 75 97 SW5 30.07F KITTY HAWK PTCLDY 78 72 82 CALM 30.07S MANTEO CLEAR 79 73 81 W7 30.08S $$ NCZ045>047-081-094-103-104-200500- CENTRAL COAST CITY SKY/WX TMP DP RH WIND PRES REMARKS FRISCO CLEAR 79 74 84 W3 30.08F $$ NCZ095-097-098-100-101-200500- SOUTHERN COAST CITY SKY/WX TMP DP RH WIND PRES REMARKS BEAUFORT PTCLDY 76 76 100 CALM 30.07S CEDAR ISLAND NOT AVBL JACKSONVILLE CLEAR 74 74 100 CALM 30.07F PINEY ISLAND CLEAR N/A N/A N/A CALM 30.07S WILMINGTON CLEAR 73 72 96 CALM 30.07F $$ NCZ011>013-027>030-043-044-078>080-089-090>093-098-200500- COASTAL PLAIN CITY SKY/WX TMP DP RH WIND PRES REMARKS AHOSKIE N/A 73 72 96 CALM 30.08S CLINTON CLEAR 72 71 97 CALM 30.09R ELIZABETHTOWN NOT AVBL GOLDSBORO CLEAR 75 75 100 CALM 30.07S GREENVILLE CLEAR 77 73 88 CALM 30.09S HAVELOCK CLEAR 74 72 93 CALM 30.08S KENANSVILLE CLEAR 70 70 100 CALM 30.09R KINSTON CLEAR 74 72 94 CALM 30.08F NEW BERN CLEAR 73 72 96 CALM 30.08F RICHLANDS CLEAR 72 72 100 CALM 30.08F ROCKY MOUNT CLEAR 75 74 96 CALM 30.08S WASHINGTON CLEAR 75 72 88 SW3 30.08S WHITEVILLE CLEAR 75 72 91 CALM 30.08S $$ AMZ130-135-150-152-154-156-158-170-250-252-270-ANZ085-086-088-633-658-670-200500- MARINE OBSERVATIONS STATION/POSITION TIME TEMP WIND PRES WAVE SWELL AIR SEA DIR/SP/G HT/PER HT/PER (UTC) (F) (DEG/KT/KT) (MB) (FT/S) (FT/S) CHESAPEAKE LIGHT NOT AVBL 64 E VA BEACH 0350 80 80 230/ 10/ 12 1018.6 3/ 6 2/ 6 DUCK 0400 80 62 230/ 7/ 10 1017.9 2 E DUCK 0400 68 N/A 2/15 2/15 OREGON INLET 0400 81 75 220/ 8/ 9 1018.2 13E OREGON INLT 0348 77 N/A 3/15 3/15 HATTERAS CG 0400 79 80 230/ 3/ 3 1018.3 DIAMOND BUOY 0350 82 85 220/ 8/ 10 1018.4 2/13 2/13 CAPE LOOKOUT 0400 79 210/ 4/ 5 1017.9 BEAUFORT LAB 0400 80 80 220/ 2/ 3 1017.6 30 SE NEW RVR IN 0408 79 83 250/ 6/ 8 1018.3 30 SE NEW RVR IN 0413 83 N/A 3/ 8 2/17 27 SE WRIGHTSVLE 0408 81 81 230/ 8/ 10 1018.2 5 SE WRIGHTSVLE 0408 79 81 270/ 2/ 4 1018.2 225 S CAPE HAT 0350 81 83 240/ 14/ 17 1018.9 4/ 7 2/ 8 41 SE CHARLESTON 0410 81 83 200/ 8/ 10 1018.5 $$

USA.gov is the U.S. government's official web portal to all federal, state and local government web resources and services.